Latest Weather Observations for Fort Denison

IDN60801

Issued at 4:34 am EST Sunday 5 July 2015 (issued every 30 minutes, with the page automatically refreshed every 10 minutes)

About weather observations | Map of weather stations | Latest weather observations for NSW | Other Formats
Station Details ID: 066022 Name: FORT DENISON Lat: -33.86 Lon: 151.23 Height: 5.0 m
Data from the previous 72 hours. | See also: Recent months for locations in New South Wales
Date/Time
EST
Temp
°C
App
Temp
°C
Dew
Point
Rel
Hum
%
Delta-T
°C
Wind Press
QNH
hPa
Press
MSL
hPa
Rain
since 9 am
mm
Dir
 
Spd
km/h
Gust
km/h
Spd
kts
Gust
kts
05/04:30am - - - - - W 22 26 12 14 - - -
05/04:00am - - - - - WNW 24 28 13 15 - - -
05/03:30am - - - - - W 24 26 13 14 - - -
05/03:00am - - - - - W 20 26 11 14 - - -
05/02:30am - - - - - W 19 24 10 13 - - -
05/02:00am - - - - - W 19 24 10 13 - - -
05/01:30am - - - - - W 20 26 11 14 - - -
05/01:00am - - - - - W 20 26 11 14 - - -
05/12:30am - - - - - W 19 22 10 12 - - -
05/12:00am - - - - - W 22 30 12 16 - - -
 
Date/Time
EST
Temp
°C
App
Temp
°C
Dew
Point
Rel
Hum
%
Delta-T
°C
Wind Press
QNH
hPa
Press
MSL
hPa
Rain
since 9 am
mm
Dir
 
Spd
km/h
Gust
km/h
Spd
kts
Gust
kts
04/11:30pm - - - - - W 20 26 11 14 - - -
04/11:00pm - - - - - W 19 24 10 13 - - -
04/10:30pm - - - - - W 24 30 13 16 - - -
04/10:00pm - - - - - W 22 28 12 15 - - -
04/09:30pm - - - - - W 22 26 12 14 - - -
04/09:00pm - - - - - W 15 20 8 11 - - -
04/08:30pm - - - - - WNW 13 15 7 8 - - -
04/08:00pm - - - - - WNW 15 17 8 9 - - -
04/07:30pm - - - - - WNW 6 9 3 5 - - -
04/07:00pm - - - - - NNW 7 9 4 5 - - -
04/06:30pm - - - - - N 4 6 2 3 - - -
04/06:00pm - - - - - NNW 4 6 2 3 - - -
04/05:30pm - - - - - SE 6 9 3 5 - - -
04/05:00pm - - - - - SSE 9 13 5 7 - - -
04/04:30pm - - - - - SSE 11 15 6 8 - - -
04/04:00pm - - - - - SSE 9 13 5 7 - - -
04/03:30pm - - - - - NW 9 11 5 6 - - -
04/03:00pm - - - - - WNW 11 17 6 9 - - -
04/02:30pm - - - - - W 13 19 7 10 - - -
04/02:00pm - - - - - W 9 13 5 7 - - -
04/01:30pm - - - - - W 13 19 7 10 - - -
04/01:00pm - - - - - W 15 20 8 11 - - -
04/12:30pm - - - - - WNW 11 15 6 8 - - -
04/12:00pm - - - - - WNW 11 15 6 8 - - -
04/11:30am - - - - - W 11 15 6 8 - - -
04/11:00am - - - - - WNW 15 20 8 11 - - -
04/10:30am - - - - - W 15 20 8 11 - - -
04/10:00am - - - - - W 17 22 9 12 - - -
04/09:30am - - - - - W 19 22 10 12 - - -
04/09:00am - - - - - WNW 13 20 7 11 - - -
04/08:30am - - - - - W 15 19 8 10 - - -
04/08:00am - - - - - WNW 13 17 7 9 - - -
04/07:30am - - - - - W 15 19 8 10 - - -
04/07:00am - - - - - W 13 17 7 9 - - -
04/06:30am - - - - - WNW 13 19 7 10 - - -
04/06:00am - - - - - W 15 20 8 11 - - -
04/05:30am - - - - - W 17 20 9 11 - - -
04/05:00am - - - - - WNW 13 19 7 10 - - -
04/04:30am - - - - - W 20 24 11 13 - - -
04/04:00am - - - - - WNW 19 20 10 11 - - -
04/03:30am - - - - - W 20 24 11 13 - - -
04/03:00am - - - - - WNW 17 20 9 11 - - -
04/02:30am - - - - - W 20 24 11 13 - - -
04/02:00am - - - - - WNW 15 19 8 10 - - -
04/01:30am - - - - - NW 7 15 4 8 - - -
04/01:00am - - - - - WNW 11 17 6 9 - - -
04/12:30am - - - - - WNW 15 17 8 9 - - -
04/12:00am - - - - - W 20 24 11 13 - - -
 
Date/Time
EST
Temp
°C
App
Temp
°C
Dew
Point
Rel
Hum
%
Delta-T
°C
Wind Press
QNH
hPa
Press
MSL
hPa
Rain
since 9 am
mm
Dir
 
Spd
km/h
Gust
km/h
Spd
kts
Gust
kts
03/11:30pm - - - - - W 17 20 9 11 - - -
03/11:00pm - - - - - W 19 22 10 12 - - -
03/10:30pm - - - - - WNW 11 13 6 7 - - -
03/10:00pm - - - - - WNW 11 13 6 7 - - -
03/09:30pm - - - - - WNW 9 11 5 6 - - -
03/09:00pm - - - - - NW 6 11 3 6 - - -
03/08:30pm - - - - - WNW 7 9 4 5 - - -
03/08:00pm - - - - - WNW 6 7 3 4 - - -
03/07:30pm - - - - - WNW 6 7 3 4 - - -
03/07:00pm - - - - - SSW 6 7 3 4 - - -
03/06:30pm - - - - - SSW 6 9 3 5 - - -
03/06:00pm - - - - - S 4 6 2 3 - - -
03/05:30pm - - - - - S 7 11 4 6 - - -
03/05:00pm - - - - - SSE 11 13 6 7 - - -
03/04:30pm - - - - - SSE 11 17 6 9 - - -
03/04:00pm - - - - - S 9 13 5 7 - - -
03/03:30pm - - - - - SSE 11 19 6 10 - - -
03/03:00pm - - - - - SSE 15 24 8 13 - - -
03/02:30pm - - - - - S 13 22 7 12 - - -
03/02:00pm - - - - - S 19 24 10 13 - - -
03/01:30pm - - - - - S 17 26 9 14 - - -
03/01:00pm - - - - - S 22 32 12 17 - - -
03/12:30pm - - - - - S 19 32 10 17 - - -
03/12:00pm - - - - - S 20 32 11 17 - - -
03/11:30am - - - - - SW 13 22 7 12 - - -
03/11:00am - - - - - WNW 17 22 9 12 - - -
03/10:30am - - - - - W 20 24 11 13 - - -
03/10:00am - - - - - W 22 30 12 16 - - -
03/09:30am - - - - - W 22 30 12 16 - - -
03/09:00am - - - - - W 26 32 14 17 - - -
03/08:30am - - - - - W 28 33 15 18 - - -
03/08:00am - - - - - W 30 35 16 19 - - -
03/07:30am - - - - - W 26 35 14 19 - - -
03/07:00am - - - - - W 28 35 15 19 - - -
03/06:30am - - - - - W 28 35 15 19 - - -
03/06:00am - - - - - W 30 37 16 20 - - -
03/05:30am - - - - - W 24 35 13 19 - - -
03/05:00am - - - - - W 33 44 18 24 - - -
03/04:30am - - - - - W 28 37 15 20 - - -
03/04:00am - - - - - W 32 37 17 20 - - -
03/03:30am - - - - - W 28 37 15 20 - - -
03/03:00am - - - - - W 22 32 12 17 - - -
03/02:30am - - - - - W 28 37 15 20 - - -
03/02:00am - - - - - W 28 35 15 19 - - -
03/01:30am - - - - - W 26 35 14 19 - - -
03/01:00am - - - - - W 22 32 12 17 - - -
03/12:30am - - - - - W 24 35 13 19 - - -
03/12:00am - - - - - W 22 32 12 17 - - -
 
Date/Time
EST
Temp
°C
App
Temp
°C
Dew
Point
Rel
Hum
%
Delta-T
°C
Wind Press
QNH
hPa
Press
MSL
hPa
Rain
since 9 am
mm
Dir
 
Spd
km/h
Gust
km/h
Spd
kts
Gust
kts
02/11:30pm - - - - - WSW 20 30 11 16 - - -
02/11:00pm - - - - - SW 17 28 9 15 - - -
02/10:30pm - - - - - WSW 15 28 8 15 - - -
02/10:00pm - - - - - WSW 15 26 8 14 - - -
02/09:30pm - - - - - WSW 19 32 10 17 - - -
02/09:00pm - - - - - WSW 17 24 9 13 - - -
02/08:30pm - - - - - WSW 17 28 9 15 - - -
02/08:00pm - - - - - WSW 19 28 10 15 - - -
02/07:30pm - - - - - SW 19 33 10 18 - - -
02/07:00pm - - - - - SW 15 30 8 16 - - -
02/06:30pm - - - - - WSW 22 37 12 20 - - -
02/06:00pm - - - - - WSW 37 61 20 33 - - -
02/05:31pm - - - - - WSW 43 61 23 33 - - -
02/05:30pm - - - - - WSW 41 57 22 31 - - -
02/05:00pm - - - - - WSW 39 59 21 32 - - -
02/04:30pm - - - - - WSW 28 52 15 28 - - -
02/04:24pm - - - - - WSW 28 54 15 29 - - -
02/04:00pm - - - - - WSW 32 44 17 24 - - -
02/03:36pm - - - - - WSW 37 59 20 32 - - -
02/03:30pm - - - - - WSW 37 52 20 28 - - -
02/03:00pm - - - - - WSW 33 54 18 29 - - -
02/02:33pm - - - - - W 32 50 17 27 - - -
02/02:30pm - - - - - W 35 50 19 27 - - -
02/02:06pm - - - - - W 28 50 15 27 - - -
02/02:00pm - - - - - W 30 44 16 24 - - -
02/01:30pm - - - - - WSW 32 54 17 29 - - -
02/01:00pm - - - - - W 32 56 17 30 - - -
02/12:30pm - - - - - WSW 32 56 17 30 - - -
02/12:03pm - - - - - W 35 56 19 30 - - -
02/12:00pm - - - - - W 32 44 17 24 - - -
02/11:44am - - - - - WSW 30 50 16 27 - - -
02/11:30am - - - - - WSW 30 43 16 23 - - -
02/11:00am - - - - - W 37 61 20 33 - - -
02/10:31am - - - - - W 32 50 17 27 - - -
02/10:30am - - - - - W 32 46 17 25 - - -
02/10:00am - - - - - W 26 35 14 19 - - -
02/09:30am - - - - - W 24 32 13 17 - - -
02/09:00am - - - - - W 22 30 12 16 - - -
02/08:30am - - - - - W 17 24 9 13 - - -
02/08:00am - - - - - W 20 30 11 16 - - -
02/07:30am - - - - - W 19 24 10 13 - - -
02/07:00am - - - - - W 17 22 9 12 - - -
02/06:30am - - - - - W 17 22 9 12 - - -
02/06:00am - - - - - W 17 22 9 12 - - -
02/05:30am - - - - - W 17 20 9 11 - - -
02/05:00am - - - - - W 20 28 11 15 - - -

Other Formats:

Comma delimited format used in spreadsheet applications
http://www.bom.gov.au/fwo/IDN60801/IDN60801.94769.axf

JavaScript Object Notation format (JSON) in row-major order
http://www.bom.gov.au/fwo/IDN60801/IDN60801.94769.json